Погода в Василевичи

Погода в Василевичи : погода сейчас, прогноз погоды и архив. Всё, что Вы хотите узнать о погоде в Василевичи!

Хотите узнать прогноз погоды в Василевичи? Тогда Вам сюда: Погода в Василевичи

Поиск расширенной информации на нашем сайте:

Другие новости

Новости СМИ2

Главная страница сайта

Новости сайта

03.07.2017

Напоминаем, что на нашем специализированном сайте Метеоцентр.Азия вы можете получить высокодетализированные автоматические прогнозы погоды по пунктам России, СНГ и мира в авиационном формате (включающие направление и скорость ветра, видимость, явления погоды, количество и форму облачности, нижнюю и верхнюю границу облачности).


Погода в Василевичи - сегодня

Время (UTC), дата Ветер
(°,м/с) 
Видим.   Явления Облачность Т
(°С)
Тd
(°С)
f(%) Тe
(°С)
Pmin
(гПа)
dP
(гПа)
Po
(мм)
O2
(г/м3)
Тmin Tmax R s Состояние
почвы
06 12.12.17 170 (Ю) 4000 м  дымка  10/6 600 м средняя 
[Sc|Ac und]
+0.9 -0.2 92 -1  1006.9  -0.3  742  298  -1.9      равномерный
мокрый или
старый снег
100% 
09 12.12.17 180 (Ю) 10 км    10/5 600 м средняя 
[Sc|Ac und]
+2 +0.1 87 1006.7  -0.1  742  297           
12 12.12.17 190 (Ю) 10 км    10/3 600 м средняя 
[Sc|Ac As]
+3.9 +1.3 83 +3  1006.1  -0.5  742  294           
15 12.12.17 200 (Ю) 10 км    9/0 средняя 
[Ac trans]
+3.6 +1.3 85 +2  1007.4  1.3  743  295           
18 12.12.17 200 (Ю) 10 км    10/10 600 м 
[Sc]
+4.8 +2.3 84 +4  1008.3  743  294    +5.1     
21 12.12.17 220 (ЮЗ) 10 км    6/6 600 м 
[Sc]
+6.2 +3.3 82 +6  1009.4  1.1  744  293           
00 13.12.17 170 (Ю) 4000 м  дымка  10/10 600 м 
[Sc]
+4.8 +3.6 92 +6  1010.4  0.9  745  294           
03 13.12.17 300 (СЗ) 10 км    10/10 600 м 
[Sc]
+6.4 +3.8 83 +6  1011.3  746  293         
06 13.12.17 280 (З) 2{10}  10 км  слаб. ливневой дождь  10/10 600 м кучево-дожд. 
[Cb calv]
+4.6 -0.5 69 +4  1013.8  2.4  747  296  +3    0.0  мокрый или
старый снег
50-90% 
09 13.12.17 210 (ЮЗ) 4000 м  слаб. дождь{ливн. осадки}  10/10 300 м 
[Frnb|Ns]
+2.3 +1 91 +2  1016.1  749  299           
12 13.12.17 230 (ЮЗ) 4000 м  дымка{ливн. осадки, дождь}  10/10 600 м 
[Sc]
+2.4 +1.6 94 +3  1015.3  -0.7  748  299           
15 13.12.17 тихо ()   4000 м  дымка  9/9 600 м 
[Sc]
+2.2 +1.4 94 +2  1015.5  0.1  748  299         
18 13.12.17 240 (ЮЗ) 0500 м  туман  ?/?  
+1.2 +1.2 100 +2  1015.6  0.1  748  300    +4.6   
21 13.12.17 тихо ()   2000 м  в посл. час туман  6/0 средняя 
[Ac trans]
-0.2 -0.5 98 -0  1014.8  -0.9  748  302           
00 14.12.17 тихо ()   2000 м  дымка{туман}  10/10 600 м 
[Sc]
-0.5 -0.8 98 -1  1013.3  -1.5  747  301           
03 14.12.17 тихо ()   2000 м  дымка  10/10 600 м 
[Sc]
-0.8 -1.1 98 -1  1011.5  -1.8  745  301         
06 14.12.17 160 (Ю) 0500 м  туман  ?/?  
-1 -1 100 1009.9  -1.5  744  301  -1.4      мокрый или
старый снег
10-40% 
09 14.12.17 180 (Ю) 4000 м  дымка{туман}  10/10 300 м 
[Sc]
+0.3 -0.5 94 1008.6  -1.3  743  299           
12 14.12.17 180 (Ю) 4000 м  дымка{туман}  9/9 600 м 
[Sc]
+0.8 -0.3 92 -1  1006.4  -2.1  742  298           
15 14.12.17 170 (Ю) 4000 м  дымка  10/10 600 м 
[Sc]
+0.7 -0.1 94 1005.8  -0.6  741  298           
18 14.12.17 180 (Ю) 4000 м  дымка  10/10 600 м 
[Sc]
+1.1 -0.3 90 -1  1004.9  -0.8  741  297    +1.1     
21 14.12.17 210 (ЮЗ) 4000 м  дымка  10/10 600 м 
[Sc]
+1.1 +0 92 -1  1004.9  741  297           
00 15.12.17 210 (ЮЗ) 4000 м  дымка  10/10 600 м 
[Sc]
+1.6 +0.2 90 -1  1005.2  0.2  741  297           
03 15.12.17 200 (Ю) 4000 м  дымка  9/9 1000 м 
[Sc]
+1.1 +0 92 1005.8  0.6  741  297         
06 15.12.17 170 (Ю) 4000 м  дымка  8/4 600 м верхняя 
[Sc|Ci fib]
-0.2 -1.1 94 1007.8  1.9  743  300  -0.3      мокрый или
старый снег
10-40% 
Время (UTC), дата Ветер
(°,м/с) 
Видим.   Явления Облачность Т
(°С)
Тd
(°С)
f(%) Тe
(°С)
Pmin
(гПа)
dP
(гПа)
Po
(мм)
O2
(г/м3)
Тmin Tmax R s Состояние
почвы

Для получения пояснительной информации подведите курсор к названию столбца.

ПОГОДА в Василевичи - архив

Всё, что Вы хотите узнать о погоде в Василевичи - удобно и подробно!

Выберите нужную дату (начиная с 1 января 2015* года) и нажмите кнопку "Найти".
Будут отображены архивные сводки погоды по пункту Василевичи, начиная с указанной даты.


Отображать данные в формате CSV (для использования в таблицах Excel)


Внимание! Наш архив погоды предназначен исключительно для личного некоммерческого использования в познавательных целях. Если Вам необходимы официальные справки о состоянии погоды (для производственных, юридических, коммерческих и т.п. целей), обращайтесь в органы Росгидромета.

*Примечание: данная дата относится к архиву по метеостанциям СССР (Россия, СНГ, Балтия).
Архив по метеостанциям Зарубежной Европы и Азии (кроме Китая) хранится 10 дней, по другим регионам земного шара (Китай, Африка, Америка, Австралия, Океания) - 1 день.

Василевичи - район местоположения метеостанции


Название, широта, долгота, высота метеостанции:
Василевичи 52.2°ш. 29.8°д. 142 м над ур. моря [Беларусь]

Дополнительная информация

В oтличие oт бoльшинства пoгoдных сайтoв мы публикуем пoдрoбную метеoинфoрмацию в детальнoм прoфессиoнальнoм фoрмате.

Характеристики температуры и влажнoсти вoздуха измеряются на высoте 2 м в тени вдали oт зданий и деревьев.
Скoрoсть ветра измеряется на высoте 10 м (на урoвне рoста челoвека скoрoсть ветра ниже в 1.5-2 раза). Если метеoстанция нахoдится в гoрoде или в лесу, тo скoрoсть ветра занижена на 2-4 м/с пo сравнению с oткрытым местoм. Скoрoсть ветра над акватoриями крупных рек и oзёр, а также на вершинах хoлмoв на 2-5 м/с выше, чем в oбычных услoвиях.
Атмoсфернoе давление в разных тoчках местнoсти мoжет значительнo oтличаться oт давления на метеoстанции, в зависимoсти oт услoвий рельефа (при пoдъёме на 10 м давление пoнижается примернo на 1 мм рт.ст.).